Time,TemperatureF,DewpointF,PressureIn,WindDirection,WindDirectionDegrees,WindSpeedMPH,WindSpeedGustMPH,Humidity,HourlyPrecipIn,Conditions,Clouds,dailyrainin,SoftwareType,DateUTC
2013-09-09 00:04:00,66.9,64.6,29.99,NE,41,0.0,2.0,92,0.01,,,0.01,meteohub,2013-09-09 05:04:00,
2013-09-09 00:09:00,66.9,64.2,29.99,East,89,0.0,1.0,91,0.01,,,0.01,meteohub,2013-09-09 05:09:00,
2013-09-09 00:14:00,67.1,64.4,29.99,SE,136,0.0,1.0,91,0.00,,,0.01,meteohub,2013-09-09 05:14:00,
2013-09-09 00:20:00,67.1,64.4,29.99,SE,136,0.0,1.0,91,0.00,,,0.01,meteohub,2013-09-09 05:20:00,
2013-09-09 00:25:00,67.1,64.4,29.99,SE,136,0.0,1.0,91,0.00,,,0.01,meteohub,2013-09-09 05:25:00,
2013-09-09 00:30:00,67.1,64.4,29.99,SE,134,0.0,1.0,91,0.00,,,0.01,meteohub,2013-09-09 05:30:00,
2013-09-09 00:35:00,67.1,64.4,29.99,SE,131,0.0,2.0,91,0.00,,,0.01,meteohub,2013-09-09 05:35:00,
2013-09-09 00:40:00,67.1,64.4,29.99,East,95,0.0,2.0,91,0.00,,,0.01,meteohub,2013-09-09 05:40:00,
2013-09-09 00:45:00,67.1,64.4,29.99,East,94,0.0,2.0,91,0.00,,,0.01,meteohub,2013-09-09 05:45:00,
2013-09-09 00:50:00,67.1,64.4,29.98,East,84,0.0,1.0,91,0.00,,,0.01,meteohub,2013-09-09 05:50:00,
2013-09-09 00:55:00,67.1,64.4,29.98,ENE,71,1.0,1.0,91,0.00,,,0.01,meteohub,2013-09-09 05:55:00,
2013-09-09 01:00:00,67.1,64.4,29.98,ENE,72,0.0,1.0,91,0.00,,,0.01,meteohub,2013-09-09 06:00:00,
2013-09-09 01:05:00,67.1,64.4,29.97,ENE,72,0.0,1.0,91,0.00,,,0.01,meteohub,2013-09-09 06:05:00,
2013-09-09 01:10:00,66.9,64.2,29.97,ENE,72,0.0,1.0,91,0.00,,,0.01,meteohub,2013-09-09 06:10:00,
2013-09-09 01:15:00,66.9,64.2,29.97,ENE,72,0.0,1.0,91,0.00,,,0.01,meteohub,2013-09-09 06:15:00,
2013-09-09 01:20:00,66.9,64.2,29.96,SE,138,0.0,1.0,91,0.00,,,0.01,meteohub,2013-09-09 06:20:00,
2013-09-09 01:25:00,66.9,64.2,29.96,ESE,115,0.0,0.0,91,0.00,,,0.01,meteohub,2013-09-09 06:25:00,
2013-09-09 01:31:00,66.7,64.0,29.96,ESE,123,0.0,3.0,91,0.00,,,0.01,meteohub,2013-09-09 06:31:00,
2013-09-09 01:36:00,66.7,64.0,29.96,ESE,123,0.0,3.0,91,0.00,,,0.01,meteohub,2013-09-09 06:36:00,
2013-09-09 01:41:00,66.7,64.0,29.96,East,79,0.0,3.0,91,0.00,,,0.01,meteohub,2013-09-09 06:41:00,
2013-09-09 01:46:00,66.7,64.0,29.96,East,79,0.0,1.0,91,0.00,,,0.01,meteohub,2013-09-09 06:46:00,
2013-09-09 01:51:00,66.7,64.4,29.96,East,79,0.0,1.0,92,0.00,,,0.01,meteohub,2013-09-09 06:51:00,
2013-09-09 01:56:00,66.7,64.4,29.96,East,79,0.0,0.0,92,0.00,,,0.01,meteohub,2013-09-09 06:56:00,
2013-09-09 02:01:00,66.7,64.4,29.96,East,79,0.0,0.0,92,0.00,,,0.01,meteohub,2013-09-09 07:01:00,
2013-09-09 02:06:00,66.7,64.4,29.95,East,79,0.0,0.0,92,0.00,,,0.01,meteohub,2013-09-09 07:06:00,
2013-09-09 02:11:00,66.6,64.2,29.95,SE,126,0.0,0.0,92,0.00,,,0.01,meteohub,2013-09-09 07:11:00,
2013-09-09 02:16:00,66.6,64.2,29.95,SE,126,0.0,0.0,92,0.00,,,0.01,meteohub,2013-09-09 07:16:00,
2013-09-09 02:21:00,66.6,64.2,29.95,SE,130,0.0,0.0,92,0.00,,,0.01,meteohub,2013-09-09 07:21:00,
2013-09-09 02:26:00,66.6,64.4,29.95,SE,130,0.0,1.0,93,0.00,,,0.01,meteohub,2013-09-09 07:26:00,
2013-09-09 02:31:00,66.6,64.4,29.95,SE,130,0.0,1.0,93,0.00,,,0.01,meteohub,2013-09-09 07:31:00,
2013-09-09 02:36:00,66.7,64.6,29.94,SE,130,0.0,0.0,93,0.00,,,0.01,meteohub,2013-09-09 07:36:00,
2013-09-09 02:41:00,66.7,64.6,29.94,ESE,106,0.0,0.0,93,0.00,,,0.01,meteohub,2013-09-09 07:41:00,
2013-09-09 02:46:00,66.7,64.6,29.94,ESE,106,0.0,2.0,93,0.00,,,0.01,meteohub,2013-09-09 07:46:00,
2013-09-09 02:52:00,66.9,64.8,29.94,ESE,106,0.0,2.0,93,0.00,,,0.01,meteohub,2013-09-09 07:52:00,
2013-09-09 02:57:00,67.1,64.9,29.94,ESE,106,0.0,1.0,93,0.00,,,0.01,meteohub,2013-09-09 07:57:00,
2013-09-09 03:02:00,67.1,64.9,29.94,South,176,0.0,0.0,93,0.00,,,0.01,meteohub,2013-09-09 08:02:00,
2013-09-09 03:07:00,67.3,65.1,29.93,SE,134,0.0,2.0,93,0.00,,,0.01,meteohub,2013-09-09 08:07:00,
2013-09-09 03:12:00,67.3,65.1,29.93,SE,134,0.0,2.0,93,0.00,,,0.01,meteohub,2013-09-09 08:12:00,
2013-09-09 03:17:00,67.3,65.1,29.93,SE,134,0.0,2.0,93,0.00,,,0.01,meteohub,2013-09-09 08:17:00,
2013-09-09 03:22:00,67.3,65.1,29.93,SE,130,0.0,0.0,93,0.00,,,0.01,meteohub,2013-09-09 08:22:00,
2013-09-09 03:27:00,67.3,65.1,29.93,SE,128,0.0,1.0,93,0.00,,,0.01,meteohub,2013-09-09 08:27:00,
2013-09-09 03:32:00,67.5,65.3,29.93,SE,140,0.0,2.0,93,0.00,,,0.01,meteohub,2013-09-09 08:32:00,
2013-09-09 03:37:00,67.5,65.3,29.93,East,101,0.0,2.0,93,0.00,,,0.01,meteohub,2013-09-09 08:37:00,
2013-09-09 03:42:00,67.5,65.3,29.93,East,101,0.0,2.0,93,0.00,,,0.01,meteohub,2013-09-09 08:42:00,
2013-09-09 03:47:00,67.5,65.3,29.93,SE,146,0.0,0.0,93,0.00,,,0.01,meteohub,2013-09-09 08:47:00,
2013-09-09 03:52:00,67.5,65.7,29.93,South,190,0.0,1.0,94,0.00,,,0.01,meteohub,2013-09-09 08:52:00,
2013-09-09 03:57:00,67.5,65.7,29.93,SE,138,0.0,1.0,94,0.00,,,0.01,meteohub,2013-09-09 08:57:00,
2013-09-09 04:02:00,67.5,65.7,29.92,SE,134,0.0,2.0,94,0.00,,,0.01,meteohub,2013-09-09 09:02:00,
2013-09-09 04:07:00,67.6,65.8,29.92,ESE,122,0.0,4.0,94,0.00,,,0.01,meteohub,2013-09-09 09:07:00,
2013-09-09 04:12:00,67.6,65.8,29.92,SE,138,0.0,4.0,94,0.00,,,0.01,meteohub,2013-09-09 09:12:00,
2013-09-09 04:17:00,67.6,65.5,29.92,ESE,111,0.0,4.0,93,0.00,,,0.01,meteohub,2013-09-09 09:17:00,
2013-09-09 04:22:00,67.6,65.5,29.91,ESE,109,0.0,2.0,93,0.00,,,0.01,meteohub,2013-09-09 09:22:00,
2013-09-09 04:27:00,67.6,65.5,29.91,ESE,109,0.0,2.0,93,0.00,,,0.01,meteohub,2013-09-09 09:27:00,
2013-09-09 04:32:00,67.5,65.3,29.91,SSE,152,0.0,1.0,93,0.00,,,0.01,meteohub,2013-09-09 09:32:00,
2013-09-09 04:37:00,67.5,65.7,29.91,SSE,152,0.0,1.0,94,0.00,,,0.01,meteohub,2013-09-09 09:37:00,
2013-09-09 04:42:00,67.3,65.5,29.91,SSE,153,0.0,0.0,94,0.00,,,0.01,meteohub,2013-09-09 09:42:00,
2013-09-09 04:47:00,67.3,65.5,29.91,South,173,0.0,2.0,94,0.00,,,0.01,meteohub,2013-09-09 09:47:00,
2013-09-09 04:52:00,67.3,65.5,29.91,South,172,0.0,2.0,94,0.00,,,0.01,meteohub,2013-09-09 09:52:00,
2013-09-09 04:57:00,67.1,65.3,29.91,South,172,0.0,2.0,94,0.00,,,0.01,meteohub,2013-09-09 09:57:00,
2013-09-09 05:02:00,67.1,65.3,29.91,South,172,0.0,1.0,94,0.00,,,0.01,meteohub,2013-09-09 10:02:00,
2013-09-09 05:07:00,67.1,65.3,29.91,SSE,157,0.0,1.0,94,0.00,,,0.01,meteohub,2013-09-09 10:07:00,
2013-09-09 05:12:00,67.1,65.3,29.91,SE,135,0.0,0.0,94,0.00,,,0.01,meteohub,2013-09-09 10:12:00,
2013-09-09 05:17:00,67.1,64.9,29.91,SE,135,0.0,1.0,93,0.00,,,0.01,meteohub,2013-09-09 10:17:00,
2013-09-09 05:22:00,67.3,65.1,29.91,South,188,0.0,1.0,93,0.00,,,0.01,meteohub,2013-09-09 10:22:00,
2013-09-09 05:27:00,67.3,65.1,29.91,SE,143,0.0,1.0,93,0.00,,,0.01,meteohub,2013-09-09 10:27:00,
2013-09-09 05:32:00,67.3,65.1,29.91,SE,144,0.0,2.0,93,0.00,,,0.01,meteohub,2013-09-09 10:32:00,
2013-09-09 05:37:00,67.1,64.9,29.91,SE,144,0.0,2.0,93,0.00,,,0.01,meteohub,2013-09-09 10:37:00,
2013-09-09 05:42:00,67.1,64.9,29.91,SE,130,0.0,2.0,93,0.00,,,0.01,meteohub,2013-09-09 10:42:00,
2013-09-09 05:47:00,66.9,64.8,29.91,SE,130,0.0,0.0,93,0.00,,,0.01,meteohub,2013-09-09 10:47:00,
2013-09-09 05:52:00,66.9,64.8,29.90,SE,130,0.0,0.0,93,0.00,,,0.01,meteohub,2013-09-09 10:52:00,
2013-09-09 05:57:00,66.7,64.9,29.91,SE,130,0.0,0.0,94,0.00,,,0.01,meteohub,2013-09-09 10:57:00,
2013-09-09 06:02:00,66.7,64.9,29.91,SE,130,0.0,0.0,94,0.00,,,0.01,meteohub,2013-09-09 11:02:00,
2013-09-09 06:07:00,66.6,64.8,29.91,SE,130,0.0,0.0,94,0.00,,,0.01,meteohub,2013-09-09 11:07:00,
2013-09-09 06:12:00,66.6,64.8,29.91,SE,130,0.0,0.0,94,0.00,,,0.01,meteohub,2013-09-09 11:12:00,
2013-09-09 06:17:00,66.4,64.6,29.91,SE,130,0.0,0.0,94,0.00,,,0.01,meteohub,2013-09-09 11:17:00,
2013-09-09 06:22:00,66.4,64.6,29.91,SE,130,0.0,0.0,94,0.00,,,0.01,meteohub,2013-09-09 11:22:00,
2013-09-09 06:27:00,66.2,64.4,29.91,SE,130,0.0,0.0,94,0.00,,,0.01,meteohub,2013-09-09 11:27:00,
2013-09-09 06:32:00,66.0,64.2,29.91,SE,130,0.0,0.0,94,0.00,,,0.01,meteohub,2013-09-09 11:32:00,
2013-09-09 06:37:00,65.8,64.0,29.91,SE,130,0.0,0.0,94,0.00,,,0.01,meteohub,2013-09-09 11:37:00,
2013-09-09 06:42:00,65.8,64.0,29.91,SE,130,0.0,0.0,94,0.00,,,0.01,meteohub,2013-09-09 11:42:00,
2013-09-09 06:47:00,65.8,64.4,29.91,SE,130,0.0,0.0,95,0.00,,,0.01,meteohub,2013-09-09 11:47:00,
2013-09-09 06:52:00,65.7,64.2,29.91,SE,130,0.0,0.0,95,0.00,,,0.01,meteohub,2013-09-09 11:52:00,
2013-09-09 06:57:00,65.7,64.2,29.91,SE,130,0.0,0.0,95,0.00,,,0.01,meteohub,2013-09-09 11:57:00,
2013-09-09 07:02:00,65.7,64.2,29.91,SE,130,0.0,0.0,95,0.00,,,0.01,meteohub,2013-09-09 12:02:00,
2013-09-09 07:07:00,65.8,64.4,29.91,SE,131,0.0,0.0,95,0.00,,,0.01,meteohub,2013-09-09 12:07:00,
2013-09-09 07:12:00,65.8,64.4,29.92,ESE,121,0.0,0.0,95,0.00,,,0.01,meteohub,2013-09-09 12:12:00,
2013-09-09 07:17:00,65.8,64.4,29.92,ESE,121,0.0,2.0,95,0.00,,,0.01,meteohub,2013-09-09 12:17:00,
2013-09-09 07:22:00,66.0,64.6,29.91,ESE,121,0.0,2.0,95,0.00,,,0.01,meteohub,2013-09-09 12:22:00,
2013-09-09 07:27:00,66.0,64.6,29.92,ESE,121,0.0,2.0,95,0.00,,,0.01,meteohub,2013-09-09 12:27:00,
2013-09-09 07:32:00,66.0,64.6,29.92,ESE,121,0.0,0.0,95,0.00,,,0.01,meteohub,2013-09-09 12:32:00,
2013-09-09 07:37:00,66.2,64.8,29.92,ESE,121,0.0,0.0,95,0.00,,,0.01,meteohub,2013-09-09 12:37:00,
2013-09-09 07:42:00,66.4,64.9,29.93,ESE,121,0.0,0.0,95,0.00,,,0.01,meteohub,2013-09-09 12:42:00,
2013-09-09 07:47:00,66.4,64.9,29.93,ESE,121,0.0,0.0,95,0.00,,,0.01,meteohub,2013-09-09 12:47:00,
2013-09-09 07:52:00,66.6,65.1,29.93,SE,126,0.0,0.0,95,0.00,,,0.01,meteohub,2013-09-09 12:52:00,
2013-09-09 07:57:00,66.9,65.7,29.93,SE,129,0.0,1.0,96,0.00,,,0.01,meteohub,2013-09-09 12:57:00,
2013-09-09 08:02:00,67.3,65.8,29.93,SE,129,0.0,1.0,95,0.00,,,0.01,meteohub,2013-09-09 13:02:00,
2013-09-09 08:07:00,67.6,66.2,29.93,SE,128,0.0,1.0,95,0.00,,,0.01,meteohub,2013-09-09 13:07:00,
2013-09-09 08:12:00,67.8,66.4,29.92,SE,131,0.0,1.0,95,0.00,,,0.01,meteohub,2013-09-09 13:12:00,
2013-09-09 08:17:00,68.4,66.9,29.93,SE,131,0.0,1.0,95,0.00,,,0.01,meteohub,2013-09-09 13:17:00,
2013-09-09 08:22:00,68.5,66.7,29.93,SE,131,0.0,1.0,94,0.00,,,0.01,meteohub,2013-09-09 13:22:00,
2013-09-09 08:27:00,68.9,67.1,29.92,SSW,200,0.0,1.0,94,0.00,,,0.01,meteohub,2013-09-09 13:27:00,
2013-09-09 08:32:00,69.3,67.1,29.92,ESE,108,0.0,1.0,93,0.00,,,0.01,meteohub,2013-09-09 13:32:00,
2013-09-09 08:37:00,69.4,67.3,29.92,ESE,108,0.0,2.0,93,0.00,,,0.01,meteohub,2013-09-09 13:37:00,
2013-09-09 08:42:00,70.0,67.8,29.91,SE,126,0.0,2.0,93,0.00,,,0.01,meteohub,2013-09-09 13:42:00,
2013-09-09 08:47:00,70.2,68.0,29.91,SE,126,0.0,2.0,93,0.00,,,0.01,meteohub,2013-09-09 13:47:00,
2013-09-09 08:52:00,70.3,67.8,29.91,WSW,252,0.0,1.0,92,0.00,,,0.01,meteohub,2013-09-09 13:52:00,
2013-09-09 08:57:00,70.7,68.2,29.91,SSE,158,0.0,1.0,92,0.00,,,0.01,meteohub,2013-09-09 13:57:00,
2013-09-09 09:02:00,71.1,68.5,29.91,West,275,0.0,1.0,92,0.00,,,0.01,meteohub,2013-09-09 14:02:00,
2013-09-09 09:07:00,71.2,68.7,29.91,WNW,302,0.0,2.0,92,0.00,,,0.01,meteohub,2013-09-09 14:07:00,
2013-09-09 09:12:00,71.4,68.9,29.91,West,267,0.0,2.0,92,0.00,,,0.01,meteohub,2013-09-09 14:12:00,
2013-09-09 09:17:00,71.8,69.1,29.91,ESE,107,0.0,2.0,91,0.00,,,0.01,meteohub,2013-09-09 14:17:00,
2013-09-09 09:22:00,72.0,69.3,29.90,ESE,105,0.0,2.0,91,0.00,,,0.01,meteohub,2013-09-09 14:22:00,
2013-09-09 09:27:00,72.1,69.1,29.90,ESE,107,0.0,2.0,90,0.00,,,0.01,meteohub,2013-09-09 14:27:00,
2013-09-09 09:32:00,72.3,69.6,29.90,SE,136,0.0,1.0,91,0.00,,,0.01,meteohub,2013-09-09 14:32:00,
2013-09-09 09:37:00,72.7,69.6,29.90,SE,131,0.0,1.0,90,0.00,,,0.01,meteohub,2013-09-09 14:37:00,
2013-09-09 09:42:00,72.9,69.8,29.90,SE,132,0.0,1.0,90,0.00,,,0.01,meteohub,2013-09-09 14:42:00,
2013-09-09 09:47:00,73.0,70.0,29.90,ESE,120,0.0,1.0,90,0.00,,,0.01,meteohub,2013-09-09 14:47:00,
2013-09-09 09:52:00,73.2,70.2,29.90,ESE,120,0.0,4.0,90,0.00,,,0.01,meteohub,2013-09-09 14:52:00,
2013-09-09 09:57:00,73.8,70.3,29.90,SE,124,0.0,4.0,89,0.00,,,0.01,meteohub,2013-09-09 14:57:00,
2013-09-09 10:02:00,74.1,70.3,29.90,SE,134,0.0,4.0,88,0.00,,,0.01,meteohub,2013-09-09 15:02:00,
2013-09-09 10:07:00,74.8,71.1,29.90,ESE,122,0.0,2.0,88,0.00,,,0.01,meteohub,2013-09-09 15:07:00,
2013-09-09 10:12:00,75.2,71.4,29.90,South,169,0.0,2.0,88,0.00,,,0.01,meteohub,2013-09-09 15:12:00,
2013-09-09 10:17:00,75.6,71.4,29.90,SSE,154,0.0,2.0,87,0.00,,,0.01,meteohub,2013-09-09 15:17:00,
2013-09-09 10:22:00,75.9,71.4,29.90,ENE,64,0.0,4.0,86,0.00,,,0.01,meteohub,2013-09-09 15:22:00,
2013-09-09 10:27:00,76.3,71.8,29.90,SSE,149,0.0,4.0,86,0.00,,,0.01,meteohub,2013-09-09 15:27:00,
2013-09-09 10:32:00,76.6,71.8,29.90,ENE,62,0.0,4.0,85,0.00,,,0.01,meteohub,2013-09-09 15:32:00,
2013-09-09 10:37:00,76.8,72.0,29.89,South,182,0.0,1.0,85,0.00,,,0.01,meteohub,2013-09-09 15:37:00,
2013-09-09 10:42:00,77.2,72.0,29.89,East,85,0.0,2.0,84,0.00,,,0.01,meteohub,2013-09-09 15:42:00,
2013-09-09 10:47:00,77.5,72.3,29.89,SSE,148,0.0,2.0,84,0.00,,,0.01,meteohub,2013-09-09 15:47:00,
2013-09-09 10:52:00,78.1,72.9,29.90,SW,236,0.0,2.0,84,0.00,,,0.01,meteohub,2013-09-09 15:52:00,
2013-09-09 10:57:00,78.3,72.7,29.89,SSE,155,0.0,4.0,83,0.00,,,0.01,meteohub,2013-09-09 15:57:00,
2013-09-09 11:02:00,78.6,73.0,29.89,SE,131,0.0,4.0,83,0.00,,,0.01,meteohub,2013-09-09 16:02:00,
2013-09-09 11:07:00,79.0,73.4,29.89,East,86,0.0,1.0,83,0.00,,,0.01,meteohub,2013-09-09 16:07:00,
2013-09-09 11:12:00,79.2,73.2,29.89,East,83,0.0,1.0,82,0.00,,,0.01,meteohub,2013-09-09 16:12:00,
2013-09-09 11:17:00,79.7,73.8,29.89,SE,140,0.0,2.0,82,0.00,,,0.01,meteohub,2013-09-09 16:17:00,
2013-09-09 11:22:00,80.1,73.8,29.89,WSW,252,0.0,2.0,81,0.00,,,0.01,meteohub,2013-09-09 16:22:00,
2013-09-09 11:27:00,80.4,73.8,29.88,ENE,67,0.0,2.0,80,0.00,,,0.01,meteohub,2013-09-09 16:27:00,
2013-09-09 11:32:00,81.0,74.1,29.88,East,85,0.0,2.0,80,0.00,,,0.01,meteohub,2013-09-09 16:32:00,
2013-09-09 11:37:00,81.1,73.9,29.87,South,176,0.0,3.0,79,0.00,,,0.01,meteohub,2013-09-09 16:37:00,
2013-09-09 11:42:00,81.3,73.8,29.87,WSW,256,1.0,4.0,78,0.00,,,0.01,meteohub,2013-09-09 16:42:00,
2013-09-09 11:47:00,81.7,73.8,29.87,ESE,120,0.0,4.0,77,0.00,,,0.01,meteohub,2013-09-09 16:47:00,
2013-09-09 11:52:00,81.9,74.3,29.87,ESE,123,0.0,4.0,78,0.00,,,0.01,meteohub,2013-09-09 16:52:00,
2013-09-09 11:57:00,82.0,74.1,29.87,ESE,107,0.0,4.0,77,0.00,,,0.01,meteohub,2013-09-09 16:57:00,
2013-09-09 12:02:00,82.2,74.3,29.87,ENE,68,0.0,3.0,77,0.00,,,0.01,meteohub,2013-09-09 17:02:00,
2013-09-09 12:07:00,82.6,75.0,29.87,North,0,0.0,4.0,78,0.00,,,0.01,meteohub,2013-09-09 17:07:00,
2013-09-09 12:12:00,82.8,74.5,29.87,NNW,348,0.0,4.0,76,0.00,,,0.01,meteohub,2013-09-09 17:12:00,
2013-09-09 12:17:00,82.9,74.7,29.87,East,90,0.0,3.0,76,0.00,,,0.01,meteohub,2013-09-09 17:17:00,
2013-09-09 12:22:00,83.1,74.8,29.86,SSE,164,0.0,4.0,76,0.00,,,0.01,meteohub,2013-09-09 17:22:00,
2013-09-09 12:27:00,83.7,74.5,29.86,SE,128,1.0,6.0,74,0.00,,,0.01,meteohub,2013-09-09 17:27:00,
2013-09-09 12:32:00,83.8,75.0,29.86,East,80,0.0,6.0,75,0.00,,,0.01,meteohub,2013-09-09 17:32:00,
2013-09-09 12:37:00,84.0,74.8,29.86,SSE,165,1.0,6.0,74,0.00,,,0.01,meteohub,2013-09-09 17:37:00,
2013-09-09 12:42:00,84.2,75.0,29.86,ESE,103,0.0,7.0,74,0.00,,,0.01,meteohub,2013-09-09 17:42:00,
2013-09-09 12:47:00,84.6,75.7,29.86,WSW,238,6.0,7.0,75,0.00,,,0.01,meteohub,2013-09-09 17:47:00,
2013-09-09 12:52:00,84.7,75.6,29.86,NE,43,0.0,7.0,74,0.00,,,0.01,meteohub,2013-09-09 17:52:00,
2013-09-09 12:57:00,84.7,75.6,29.86,North,5,0.0,6.0,74,0.00,,,0.01,meteohub,2013-09-09 17:57:00,
2013-09-09 13:02:00,85.1,75.4,29.86,ESE,115,0.0,6.0,73,0.00,,,0.01,meteohub,2013-09-09 18:02:00,
2013-09-09 13:07:00,85.3,75.6,29.86,East,97,0.0,3.0,73,0.00,,,0.01,meteohub,2013-09-09 18:07:00,
2013-09-09 13:12:00,85.6,75.9,29.86,West,278,0.0,3.0,73,0.00,,,0.01,meteohub,2013-09-09 18:12:00,
2013-09-09 13:17:00,85.8,75.4,29.86,West,281,0.0,5.0,71,0.00,,,0.01,meteohub,2013-09-09 18:17:00,
2013-09-09 13:22:00,86.2,75.2,29.86,West,279,1.0,5.0,70,0.00,,,0.01,meteohub,2013-09-09 18:22:00,
2013-09-09 13:27:00,86.4,75.4,29.86,WNW,298,0.0,5.0,70,0.00,,,0.01,meteohub,2013-09-09 18:27:00,
2013-09-09 13:32:00,86.4,75.4,29.85,SSE,168,2.0,6.0,70,0.00,,,0.01,meteohub,2013-09-09 18:32:00,
2013-09-09 13:37:00,86.2,75.2,29.85,SE,129,0.0,7.0,70,0.00,,,0.01,meteohub,2013-09-09 18:37:00,
2013-09-09 13:42:00,86.4,75.4,29.85,East,101,0.0,7.0,70,0.00,,,0.01,meteohub,2013-09-09 18:42:00,
2013-09-09 13:47:00,86.7,76.1,29.84,WNW,294,0.0,7.0,71,0.00,,,0.01,meteohub,2013-09-09 18:47:00,
2013-09-09 13:52:00,86.7,75.4,29.84,SSW,198,2.0,10.0,69,0.00,,,0.01,meteohub,2013-09-09 18:52:00,
2013-09-09 13:57:00,86.9,75.9,29.84,ESE,106,0.0,10.0,70,0.00,,,0.01,meteohub,2013-09-09 18:57:00,
2013-09-09 14:02:00,87.1,76.1,29.84,East,96,0.0,8.0,70,0.00,,,0.01,meteohub,2013-09-09 19:02:00,
2013-09-09 14:07:00,87.3,75.9,29.83,WNW,297,0.0,5.0,69,0.00,,,0.01,meteohub,2013-09-09 19:07:00,
2013-09-09 14:12:00,87.4,75.9,29.83,NNE,13,0.0,6.0,69,0.00,,,0.01,meteohub,2013-09-09 19:12:00,
2013-09-09 14:17:00,87.4,75.9,29.83,WSW,239,0.0,6.0,69,0.00,,,0.01,meteohub,2013-09-09 19:17:00,
2013-09-09 14:22:00,87.6,75.7,29.83,ESE,109,1.0,6.0,68,0.00,,,0.01,meteohub,2013-09-09 19:22:00,
2013-09-09 14:27:00,87.6,76.1,29.83,ENE,68,0.0,6.0,69,0.00,,,0.01,meteohub,2013-09-09 19:27:00,
2013-09-09 14:32:00,87.6,75.4,29.82,SSW,196,0.0,6.0,67,0.00,,,0.01,meteohub,2013-09-09 19:32:00,
2013-09-09 14:37:00,87.8,75.9,29.82,NNW,348,0.0,5.0,68,0.00,,,0.01,meteohub,2013-09-09 19:37:00,
2013-09-09 14:42:00,88.0,76.5,29.82,ESE,118,6.0,7.0,69,0.00,,,0.01,meteohub,2013-09-09 19:42:00,
2013-09-09 14:47:00,88.2,76.3,29.82,East,87,0.0,7.0,68,0.00,,,0.01,meteohub,2013-09-09 19:47:00,
2013-09-09 14:52:00,88.5,77.0,29.81,NE,53,0.0,7.0,69,0.00,,,0.01,meteohub,2013-09-09 19:52:00,
2013-09-09 14:57:00,88.5,75.7,29.81,ESE,117,1.0,7.0,66,0.00,,,0.01,meteohub,2013-09-09 19:57:00,
2013-09-09 15:02:00,88.5,76.6,29.81,NNE,19,0.0,7.0,68,0.00,,,0.01,meteohub,2013-09-09 20:02:00,
2013-09-09 15:07:00,88.5,76.6,29.81,South,179,0.0,6.0,68,0.00,,,0.01,meteohub,2013-09-09 20:07:00,
2013-09-09 15:12:00,88.3,76.5,29.81,South,185,0.0,6.0,68,0.00,,,0.01,meteohub,2013-09-09 20:12:00,
2013-09-09 15:17:00,88.3,76.8,29.81,West,275,0.0,6.0,69,0.00,,,0.01,meteohub,2013-09-09 20:17:00,
2013-09-09 15:22:00,88.3,76.5,29.80,East,91,1.0,4.0,68,0.00,,,0.01,meteohub,2013-09-09 20:22:00,
2013-09-09 15:27:00,88.3,76.5,29.80,East,90,0.0,4.0,68,0.00,,,0.01,meteohub,2013-09-09 20:27:00,
2013-09-09 15:32:00,88.3,75.9,29.80,WNW,282,0.0,5.0,67,0.00,,,0.01,meteohub,2013-09-09 20:32:00,
2013-09-09 15:37:00,88.2,76.3,29.80,West,273,0.0,7.0,68,0.00,,,0.01,meteohub,2013-09-09 20:37:00,
2013-09-09 15:42:00,88.2,77.2,29.80,WNW,287,0.0,7.0,70,0.00,,,0.01,meteohub,2013-09-09 20:42:00,
2013-09-09 15:47:00,88.2,76.6,29.80,SSW,192,4.0,7.0,69,0.00,,,0.01,meteohub,2013-09-09 20:47:00,
2013-09-09 15:52:00,88.2,77.2,29.80,SSE,153,5.0,8.0,70,0.00,,,0.01,meteohub,2013-09-09 20:52:00,
2013-09-09 15:57:00,88.0,77.0,29.80,West,279,0.0,8.0,70,0.00,,,0.01,meteohub,2013-09-09 20:57:00,
2013-09-09 16:02:00,88.2,76.6,29.80,NE,40,0.0,8.0,69,0.00,,,0.01,meteohub,2013-09-09 21:02:00,
2013-09-09 16:07:00,88.2,76.6,29.80,WNW,302,1.0,7.0,69,0.00,,,0.01,meteohub,2013-09-09 21:07:00,
2013-09-09 16:12:00,88.2,76.6,29.79,North,351,0.0,8.0,69,0.00,,,0.01,meteohub,2013-09-09 21:12:00,
2013-09-09 16:17:00,88.0,76.5,29.79,ENE,67,1.0,8.0,69,0.00,,,0.01,meteohub,2013-09-09 21:17:00,
2013-09-09 16:22:00,88.0,77.0,29.79,WNW,294,0.0,8.0,70,0.00,,,0.01,meteohub,2013-09-09 21:22:00,
2013-09-09 16:27:00,88.0,77.4,29.79,NNW,335,0.0,6.0,71,0.00,,,0.01,meteohub,2013-09-09 21:27:00,
2013-09-09 16:32:00,88.0,77.4,29.79,East,98,0.0,6.0,71,0.00,,,0.01,meteohub,2013-09-09 21:32:00,
2013-09-09 16:37:00,87.8,77.2,29.79,East,80,0.0,7.0,71,0.00,,,0.01,meteohub,2013-09-09 21:37:00,
2013-09-09 16:42:00,87.6,77.0,29.79,South,188,0.0,11.0,71,0.00,,,0.01,meteohub,2013-09-09 21:42:00,
2013-09-09 16:47:00,87.6,77.0,29.79,WSW,247,1.0,11.0,71,0.00,,,0.01,meteohub,2013-09-09 21:47:00,
2013-09-09 16:52:00,87.4,76.8,29.79,East,96,1.0,6.0,71,0.00,,,0.01,meteohub,2013-09-09 21:52:00,
2013-09-09 16:57:00,87.4,77.4,29.79,East,80,1.0,5.0,72,0.00,,,0.01,meteohub,2013-09-09 21:57:00,
2013-09-09 17:02:00,87.4,76.5,29.79,West,272,0.0,6.0,70,0.00,,,0.01,meteohub,2013-09-09 22:02:00,
2013-09-09 17:07:00,87.4,76.8,29.79,NE,47,0.0,9.0,71,0.00,,,0.01,meteohub,2013-09-09 22:07:00,
2013-09-09 17:12:00,87.3,77.2,29.79,ENE,65,3.0,9.0,72,0.00,,,0.01,meteohub,2013-09-09 22:12:00,
2013-09-09 17:17:00,87.1,77.0,29.79,NW,317,1.0,9.0,72,0.00,,,0.01,meteohub,2013-09-09 22:17:00,
2013-09-09 17:22:00,87.1,77.0,29.79,WNW,286,0.0,6.0,72,0.00,,,0.01,meteohub,2013-09-09 22:22:00,
2013-09-09 17:27:00,87.1,77.4,29.79,NNW,328,0.0,4.0,73,0.00,,,0.01,meteohub,2013-09-09 22:27:00,
2013-09-09 17:32:00,86.9,77.2,29.79,ESE,111,0.0,4.0,73,0.00,,,0.01,meteohub,2013-09-09 22:32:00,
2013-09-09 17:37:00,86.9,77.2,29.79,SSW,206,0.0,4.0,73,0.00,,,0.01,meteohub,2013-09-09 22:37:00,
2013-09-09 17:42:00,86.7,77.0,29.79,North,355,0.0,7.0,73,0.00,,,0.01,meteohub,2013-09-09 22:42:00,
2013-09-09 17:47:00,86.7,77.4,29.79,NW,324,0.0,7.0,74,0.00,,,0.01,meteohub,2013-09-09 22:47:00,
2013-09-09 17:52:00,86.5,77.2,29.79,West,264,0.0,7.0,74,0.00,,,0.01,meteohub,2013-09-09 22:52:00,
2013-09-09 17:57:00,86.4,77.0,29.79,West,279,1.0,5.0,74,0.00,,,0.01,meteohub,2013-09-09 22:57:00,
2013-09-09 18:02:00,86.2,77.0,29.79,SW,217,0.0,6.0,74,0.00,,,0.01,meteohub,2013-09-09 23:02:00,
2013-09-09 18:07:00,86.0,77.2,29.79,West,273,0.0,6.0,75,0.00,,,0.01,meteohub,2013-09-09 23:07:00,
2013-09-09 18:12:00,85.8,77.4,29.79,WSW,247,0.0,6.0,76,0.00,,,0.01,meteohub,2013-09-09 23:12:00,
2013-09-09 18:17:00,85.6,76.8,29.79,South,180,0.0,5.0,75,0.00,,,0.01,meteohub,2013-09-09 23:17:00,
2013-09-09 18:22:00,85.6,77.2,29.79,WNW,284,0.0,6.0,76,0.00,,,0.01,meteohub,2013-09-09 23:22:00,
2013-09-09 18:27:00,85.5,77.0,29.79,WSW,252,0.0,6.0,76,0.00,,,0.01,meteohub,2013-09-09 23:27:00,
2013-09-09 18:32:00,85.1,76.6,29.79,NNE,28,0.0,6.0,76,0.00,,,0.01,meteohub,2013-09-09 23:32:00,
2013-09-09 18:37:00,84.9,76.8,29.79,WSW,257,0.0,3.0,77,0.00,,,0.01,meteohub,2013-09-09 23:37:00,
2013-09-09 18:42:00,84.7,76.6,29.79,WSW,251,0.0,2.0,77,0.00,,,0.01,meteohub,2013-09-09 23:42:00,
2013-09-09 18:47:00,84.6,76.5,29.79,East,96,0.0,3.0,77,0.00,,,0.01,meteohub,2013-09-09 23:47:00,
2013-09-09 18:52:00,84.2,76.6,29.79,East,98,0.0,3.0,78,0.00,,,0.01,meteohub,2013-09-09 23:52:00,
2013-09-09 18:57:00,83.8,76.6,29.79,East,98,0.0,3.0,79,0.00,,,0.01,meteohub,2013-09-09 23:57:00,
2013-09-09 19:02:00,83.7,76.5,29.79,East,98,0.0,2.0,79,0.00,,,0.01,meteohub,2013-09-10 00:02:00,
2013-09-09 19:07:00,83.3,76.5,29.79,WSW,251,0.0,1.0,80,0.00,,,0.00,meteohub,2013-09-10 00:07:00,
2013-09-09 19:12:00,83.1,76.3,29.79,West,263,0.0,1.0,80,0.00,,,0.00,meteohub,2013-09-10 00:12:00,
2013-09-09 19:17:00,82.8,76.3,29.79,SSW,198,0.0,1.0,81,0.00,,,0.00,meteohub,2013-09-10 00:17:00,
2013-09-09 19:22:00,82.6,76.1,29.80,WSW,258,0.0,1.0,81,0.00,,,0.00,meteohub,2013-09-10 00:22:00,
2013-09-09 19:27:00,82.6,76.1,29.80,SW,229,0.0,3.0,81,0.00,,,0.00,meteohub,2013-09-10 00:27:00,
2013-09-09 19:32:00,82.2,75.7,29.80,ESE,109,1.0,3.0,81,0.00,,,0.00,meteohub,2013-09-10 00:32:00,
2013-09-09 19:37:00,82.2,75.7,29.80,SE,141,0.0,3.0,81,0.00,,,0.00,meteohub,2013-09-10 00:37:00,
2013-09-09 19:42:00,82.0,75.9,29.80,NNE,16,0.0,3.0,82,0.00,,,0.00,meteohub,2013-09-10 00:42:00,
2013-09-09 19:47:00,82.0,75.9,29.80,NNE,16,0.0,3.0,82,0.00,,,0.00,meteohub,2013-09-10 00:47:00,
2013-09-09 19:52:00,82.0,75.9,29.80,NNE,23,0.0,4.0,82,0.00,,,0.00,meteohub,2013-09-10 00:52:00,
2013-09-09 19:57:00,82.0,75.9,29.80,WSW,255,0.0,4.0,82,0.00,,,0.00,meteohub,2013-09-10 00:57:00,
2013-09-09 20:02:00,82.0,75.9,29.80,SSE,156,0.0,4.0,82,0.00,,,0.00,meteohub,2013-09-10 01:02:00,
2013-09-09 20:07:00,81.9,75.7,29.80,WNW,296,0.0,4.0,82,0.00,,,0.00,meteohub,2013-09-10 01:07:00,
2013-09-09 20:12:00,81.9,75.7,29.80,WNW,292,1.0,4.0,82,0.00,,,0.00,meteohub,2013-09-10 01:12:00,
2013-09-09 20:17:00,81.7,75.6,29.80,WSW,252,0.0,2.0,82,0.00,,,0.00,meteohub,2013-09-10 01:17:00,
2013-09-09 20:22:00,81.7,75.6,29.80,NNW,344,1.0,2.0,82,0.00,,,0.00,meteohub,2013-09-10 01:22:00,
2013-09-09 20:27:00,81.7,75.6,29.80,ESE,121,0.0,2.0,82,0.00,,,0.00,meteohub,2013-09-10 01:27:00,
2013-09-09 20:32:00,81.5,75.4,29.80,WSW,242,0.0,2.0,82,0.00,,,0.00,meteohub,2013-09-10 01:32:00,
2013-09-09 20:37:00,81.3,75.4,29.80,SE,141,0.0,2.0,82,0.00,,,0.00,meteohub,2013-09-10 01:37:00,
2013-09-09 20:42:00,81.3,74.8,29.80,SW,227,1.0,2.0,81,0.00,,,0.00,meteohub,2013-09-10 01:42:00,
2013-09-09 20:47:00,81.7,74.8,29.81,South,185,0.0,10.0,80,0.00,,,0.00,meteohub,2013-09-10 01:47:00,
2013-09-09 20:52:00,81.9,75.0,29.81,SSW,206,0.0,10.0,80,0.00,,,0.00,meteohub,2013-09-10 01:52:00,
2013-09-09 20:57:00,81.9,75.0,29.81,WNW,296,0.0,10.0,80,0.00,,,0.00,meteohub,2013-09-10 01:57:00,
2013-09-09 21:02:00,82.0,74.8,29.81,NNE,18,0.0,6.0,79,0.00,,,0.00,meteohub,2013-09-10 02:02:00,
2013-09-09 21:07:00,82.4,74.8,29.81,SE,130,0.0,5.0,78,0.00,,,0.00,meteohub,2013-09-10 02:07:00,
2013-09-09 21:12:00,82.6,74.7,29.81,SW,236,0.0,4.0,77,0.00,,,0.00,meteohub,2013-09-10 02:12:00,
2013-09-09 21:17:00,82.6,74.7,29.81,West,267,0.0,4.0,77,0.00,,,0.00,meteohub,2013-09-10 02:17:00,
2013-09-09 21:22:00,82.8,74.5,29.81,WSW,250,0.0,4.0,76,0.00,,,0.00,meteohub,2013-09-10 02:22:00,
2013-09-09 21:27:00,82.8,74.5,29.81,WNW,287,0.0,5.0,76,0.00,,,0.00,meteohub,2013-09-10 02:27:00,
2013-09-09 21:32:00,82.8,74.5,29.81,SSW,201,1.0,5.0,76,0.00,,,0.00,meteohub,2013-09-10 02:32:00,
2013-09-09 21:37:00,82.8,73.9,29.81,West,259,0.0,5.0,75,0.00,,,0.00,meteohub,2013-09-10 02:37:00,
2013-09-09 21:42:00,82.8,73.6,29.81,West,265,0.0,6.0,74,0.00,,,0.00,meteohub,2013-09-10 02:42:00,
2013-09-09 21:47:00,82.9,73.8,29.81,SW,224,0.0,9.0,74,0.00,,,0.00,meteohub,2013-09-10 02:47:00,
2013-09-09 21:52:00,82.9,73.8,29.81,West,273,0.0,9.0,74,0.00,,,0.00,meteohub,2013-09-10 02:52:00,
2013-09-09 21:57:00,83.1,73.9,29.81,NW,326,0.0,6.0,74,0.00,,,0.00,meteohub,2013-09-10 02:57:00,
2013-09-09 22:02:00,83.1,73.6,29.81,NW,323,0.0,6.0,73,0.00,,,0.00,meteohub,2013-09-10 03:02:00,
2013-09-09 22:07:00,83.5,73.9,29.81,West,279,1.0,7.0,73,0.00,,,0.00,meteohub,2013-09-10 03:07:00,
2013-09-09 22:12:00,83.5,73.6,29.81,SW,230,3.0,7.0,72,0.00,,,0.00,meteohub,2013-09-10 03:12:00,
2013-09-09 22:17:00,83.5,73.6,29.81,North,355,0.0,7.0,72,0.00,,,0.00,meteohub,2013-09-10 03:17:00,
2013-09-09 22:22:00,83.5,73.6,29.81,WSW,240,0.0,11.0,72,0.00,,,0.00,meteohub,2013-09-10 03:22:00,
2013-09-09 22:27:00,83.5,73.6,29.81,WNW,285,3.0,11.0,72,0.00,,,0.00,meteohub,2013-09-10 03:27:00,
2013-09-09 22:32:00,83.3,73.8,29.82,North,351,0.0,11.0,73,0.00,,,0.00,meteohub,2013-09-10 03:32:00,
2013-09-09 22:37:00,83.3,73.4,29.82,NNW,332,0.0,10.0,72,0.00,,,0.00,meteohub,2013-09-10 03:37:00,
2013-09-09 22:42:00,83.1,73.2,29.82,WNW,291,5.0,10.0,72,0.00,,,0.00,meteohub,2013-09-10 03:42:00,
2013-09-09 22:47:00,83.1,73.2,29.81,West,276,0.0,9.0,72,0.00,,,0.00,meteohub,2013-09-10 03:47:00,
2013-09-09 22:53:00,82.9,73.4,29.81,NNW,328,0.0,10.0,73,0.00,,,0.00,meteohub,2013-09-10 03:53:00,
2013-09-09 22:58:00,82.8,73.2,29.81,SW,216,0.0,10.0,73,0.00,,,0.00,meteohub,2013-09-10 03:58:00,
2013-09-09 23:01:00,82.6,73.0,29.81,NNW,344,0.0,10.0,73,0.00,,,0.00,meteohub,2013-09-10 04:01:00,
2013-09-09 23:02:00,82.6,73.0,29.81,West,267,1.0,10.0,73,0.00,,,0.00,meteohub,2013-09-10 04:02:00,
2013-09-09 23:07:00,82.4,72.9,29.81,NW,311,0.0,10.0,73,0.00,,,0.00,meteohub,2013-09-10 04:07:00,
2013-09-09 23:08:00,82.2,72.7,29.81,NW,314,0.0,10.0,73,0.00,,,0.00,meteohub,2013-09-10 04:08:00,
2013-09-09 23:11:00,82.2,73.0,29.81,NW,325,1.0,8.0,74,0.00,,,0.00,meteohub,2013-09-10 04:11:00,
2013-09-09 23:16:00,82.0,72.9,29.81,WNW,292,0.0,8.0,74,0.00,,,0.00,meteohub,2013-09-10 04:16:00,
2013-09-09 23:21:00,82.0,72.9,29.81,WSW,256,1.0,8.0,74,0.00,,,0.00,meteohub,2013-09-10 04:21:00,
2013-09-09 23:26:00,81.9,72.7,29.81,SSW,211,0.0,8.0,74,0.00,,,0.00,meteohub,2013-09-10 04:26:00,
2013-09-09 23:31:00,81.9,72.7,29.81,West,281,3.0,10.0,74,0.00,,,0.00,meteohub,2013-09-10 04:31:00,
2013-09-09 23:36:00,81.7,72.5,29.82,NW,324,0.0,10.0,74,0.00,,,0.00,meteohub,2013-09-10 04:36:00,
2013-09-09 23:41:00,81.7,72.5,29.81,NE,40,0.0,10.0,74,0.00,,,0.00,meteohub,2013-09-10 04:41:00,
2013-09-09 23:46:00,81.7,72.5,29.82,West,271,1.0,7.0,74,0.00,,,0.00,meteohub,2013-09-10 04:46:00,
2013-09-09 23:51:00,81.7,72.1,29.82,NW,307,0.0,6.0,73,0.00,,,0.00,meteohub,2013-09-10 04:51:00,
2013-09-09 23:57:00,81.5,72.3,29.81,West,261,1.0,10.0,74,0.00,,,0.00,meteohub,2013-09-10 04:57:00,